Charlottetown, Prince Edward Island

1:12 PM ADT on August 23, 2017 (GMT -0300)
Charlottetown

Weather History for CYYG - October, 2012

Change the Weather History Date:

Friday, October 19, 2012

  Actual Average Record
Temperature  
Mean Temperature 48 °F -  
Max Temperature 59 °F 47 °F 68 °F (2016)
Min Temperature 36 °F 33 °F 26 °F (2015)
Degree Days  
Heating Degree Days 18    
Moisture  
Dew Point 43 °F    
Average Humidity 81    
Maximum Humidity 100    
Minimum Humidity 32    
Precipitation  
Precipitation 0.00 in 0.16 in - ()
Sea Level Pressure  
Sea Level Pressure 30.25 in    
Wind  
Wind Speed 4 mph ()    
Max Wind Speed 13 mph    
Max Gust Speed -    
Visibility 15.0 miles    
Events Fog    
Averages and records for this station are not official NWS values.
T = Trace of Precipitation, MM = Missing Value Source: Averaged Metar Reports

Daily Weather History Graph

Daily Weather History Graph

Search for Another Location

Airport or City:

Trip Planner

Search our weather history database for the weather conditions in past years. The results will help you decide how hot, cold, wet, or windy it might be!

Date:

Astronomy

Oct. 19, 2012 Rise Set
Actual Time 7:35 AM ADT 6:18 PM ADT
Civil Twilight 7:05 AM ADT 6:48 PM ADT
Nautical Twilight 6:30 AM ADT 7:23 PM ADT
Astronomical Twilight 5:55 AM ADT 7:58 PM ADT
Moon 12:26 PM ADT (10/19) 9:39 PM ADT (10/19)
Length of Visible Light 11h 43m
Length of Day
10h 42m
Waxing Crescent, 23% of the Moon is Illuminated
Oct 19
Waxing Crescent
Oct 22
First Quarter
Oct 29
Full
Nov 6
Last Quarter
Nov 13
New

Hourly Weather History & Observations

Time (ADT) Temp. Windchill Dew Point Humidity Pressure Visibility Wind Dir Wind Speed Gust Speed Precip Events Conditions
12:00 AM 41.0 °F 38.0 °F 41.0 °F 100% 30.23 in 15.0 mi SSE 4.6 mph - N/A   Scattered Clouds
1:00 AM 42.8 °F 40.1 °F 41.0 °F 93% 30.23 in 15.0 mi South 4.6 mph - N/A   Scattered Clouds
2:00 AM 44.6 °F 43.1 °F 42.8 °F 93% 30.23 in 15.0 mi SSE 3.5 mph - N/A   Scattered Clouds
3:00 AM 42 °F - 42 °F 100% 30.24 in 15 mi South 2.3 mph - -   Clear
3:00 AM 42.8 °F - 42.8 °F 100% 30.24 in 15.0 mi South 2.3 mph - N/A   Scattered Clouds
4:00 AM 44.6 °F 43.1 °F 44.6 °F 100% 30.26 in 15.0 mi South 3.5 mph - N/A   Scattered Clouds
5:00 AM 41.0 °F - 41.0 °F 100% 30.25 in 15.0 mi SSE 2.3 mph - N/A Fog Shallow Fog
6:00 AM 37.4 °F - 37.4 °F 100% 30.26 in 15.0 mi Calm Calm - N/A Fog Shallow Fog
7:00 AM 41.0 °F - 41.0 °F 100% 30.26 in 15.0 mi Calm Calm - N/A Fog Shallow Fog
8:00 AM 42.8 °F 41.1 °F 42.8 °F 100% 30.26 in 15.0 mi SE 3.5 mph - N/A Fog Shallow Fog
9:00 AM 46 °F - 46 °F 100% 30.27 in 15 mi South 3.5 mph - -   Clear
9:00 AM 46.4 °F 45.2 °F 46.4 °F 100% 30.27 in 15.0 mi South 3.5 mph - N/A   Partly Cloudy
10:00 AM 51.8 °F - 46.4 °F 82% 30.29 in 15.0 mi South 9.2 mph - N/A   Partly Cloudy
11:00 AM 53.6 °F - 46.4 °F 77% 30.29 in 15.0 mi South 8.1 mph - N/A   Partly Cloudy
12:00 PM 57.2 °F - 46.4 °F 67% 30.27 in 15.0 mi South 8.1 mph - N/A   Partly Cloudy
1:00 PM 59.0 °F - 42.8 °F 55% 30.27 in 15.0 mi South 8.1 mph - N/A   Partly Cloudy
2:00 PM 59.0 °F - 39.2 °F 48% 30.26 in 15.0 mi South 8.1 mph - N/A   Mostly Cloudy
3:00 PM 59 °F - 37 °F 32% 30.25 in 15 mi South 6.9 mph - -   Clear
3:00 PM 59.0 °F - 37.4 °F 45% 30.25 in 15.0 mi South 6.9 mph - N/A   Mostly Cloudy
4:00 PM 59.0 °F - 41.0 °F 51% 30.25 in 15.0 mi SSE 8.1 mph - N/A   Mostly Cloudy
5:00 PM 59.0 °F - 42.8 °F 55% 30.24 in 15.0 mi SSE 4.6 mph - N/A   Mostly Cloudy
6:00 PM 55.4 °F - 42.8 °F 63% 30.23 in 15.0 mi SSE 4.6 mph - N/A   Mostly Cloudy
7:00 PM 53.6 °F - 42.8 °F 67% 30.24 in 15.0 mi SE 4.6 mph - N/A   Mostly Cloudy
9:00 PM 52 °F - 48 °F 80% 30.25 in 15 mi SSE 10.4 mph - -   Overcast
9:00 PM 51.8 °F - 48.2 °F 88% 30.25 in 15.0 mi SSE 10.4 mph - N/A   Overcast
10:00 PM 51.8 °F - 48.2 °F 88% 30.25 in 15.0 mi SSE 12.7 mph - N/A   Overcast
11:00 PM 50.0 °F - 48.2 °F 94% 30.22 in 15.0 mi SSE 11.5 mph - N/A   Overcast